This is the latest recevied weather packets stored in our database for station/object JE0GNV-13. If no packets are shown the sender has not sent any weather packets the latest 10 day(s).
| Time | Temp. | Humidity | Pressure | Rain* | Wind** | Luminosity | Snow |
|---|---|---|---|---|---|---|---|
| 1777669801 | 6.11° C | 98% | 1003.6 hPa | 0 mm | - | - | - |
| 1777669201 | 6.11° C | 97% | 1003.3 hPa | 0 mm | - | - | - |
| 1777668601 | 6.11° C | 97% | 1003.1 hPa | 0 mm | - | - | - |
| 1777668001 | 5.56° C | 97% | 1003.1 hPa | 0 mm | - | - | - |
| 1777667400 | 5.56° C | 97% | 1002.8 hPa | 0 mm | - | - | - |
| 1777666801 | 5.56° C | 96% | 1002.6 hPa | 0 mm | - | - | - |
| 1777666202 | 5.56° C | 95% | 1002.6 hPa | 0 mm | - | - | - |
| 1777665601 | 6.11° C | 95% | 1002.4 hPa | 0 mm | - | - | - |
| 1777665001 | 6.11° C | 95% | 1002.1 hPa | 0 mm | - | - | - |
| 1777664402 | 6.67° C | 95% | 1002 hPa | 0 mm | - | - | - |
| 1777663802 | 6.67° C | 95% | 1002.1 hPa | 0 mm | - | - | - |
| 1777663201 | 6.67° C | 94% | 1001.9 hPa | 0 mm | - | - | - |
| 1777662600 | 6.67° C | 94% | 1001.8 hPa | 0 mm | - | - | - |
| 1777662001 | 6.67° C | 93% | 1001.6 hPa | 0 mm | - | - | - |
| 1777661401 | 7.22° C | 93% | 1001.4 hPa | 0 mm | - | - | - |
| 1777660801 | 7.22° C | 93% | 1001.3 hPa | 0 mm | - | - | - |
| 1777660201 | 7.78° C | 93% | 1001.1 hPa | 0.25 mm | - | - | - |
| 1777659600 | 7.78° C | 93% | 1000.8 hPa | 0.25 mm | - | - | - |
| 1777659000 | 7.78° C | 93% | 1000.7 hPa | 0.25 mm | - | - | - |
| 1777658400 | 7.78° C | 93% | 1000.2 hPa | 0.25 mm | - | - | - |
| 1777657801 | 7.78° C | 93% | 999.9 hPa | 0.25 mm | - | - | - |
| 1777657202 | 7.78° C | 94% | 999.8 hPa | 0.25 mm | - | - | - |
| 1777656601 | 7.78° C | 94% | 999.6 hPa | 0 mm | - | - | - |
| 1777656001 | 7.78° C | 93% | 999.5 hPa | 0 mm | - | - | - |
| 1777655400 | 7.78° C | 93% | 999.5 hPa | 0 mm | - | - | - |
* Rain latest hour (hover to see other rain measurements)
** Current wind speed in m/s (hover to see current wind gust speed)